THOR ABLESTAR DEB, 548

Orbit data source: Space-Track

THOR ABLESTAR DEB, 548 is space debris in LEO originally from a launch on Thu, 29 Jun 1961 UTC launched from the Air Force Eastern Test Range (AFETR). Debris objects in space refer to the collection of defunct objects orbiting the Earth. Examples of debris include non-operational satellites, rocket bodies, and fragments generated from explosions, collisions, or faulty payload assembly.

Loading next visibility...
Identifier
548, 1961-015GH
Orbit
LEO
Country
Flag of USUS
Related business
Manufacturer
Unknown
Mission
Spacecraft
Bus & Motor
Unknown
Mass
Unknown
Launch date (UTC)
1961-06-29 (64 years ago)
Launch vehicle
Unknown
Launch site
Air Force Eastern Test Range (AFETR)
Object type
Payload
Rocket body
Debris
Shape & HBR
Unknown shape, 0.1 m
Radar Cross Section
Small (<0.1 m²)

Expand to show TLE details & history
Last TLE update: 4 hours ago

TLE from 4 hours ago
0 THOR ABLESTAR DEB
1 00548U 61015GH  25292.95809250  .00007151  00000-0  99615-3 0  9995
2 00548  66.6694 263.3160 0105948 298.4879  60.5602 14.74493298368389
Epoch: 2025-10-19T22:59Z
TLE epoch observation values (Epoch: 2025-10-19T22:59:39.192Z)
Latitude
-0.00006°
Longitude
-110.26461°
Altitude
612.925 km
Speed
7.572 km/s
True Right ascension
17h 33m 15s
True Declination
0° 00' 00"
Sunlit
Object was in daylight at epoch
Visualization orbit readout
Latitude
Unknown
Longitude
Unknown
Altitude
Unknown
Speed
Unknown
Apparent Right ascension
Unknown
Apparent Declination
Unknown
Sunlit
N/A
Visualization observer readout
Local Sidereal Time
22:04:00
Azimuth
Unknown
Elevation
Unknown
Doppler factor
Unknown
Orbital elements
Apogee altitude
719.515 km
Perigee altitude
570.695 km
Semi-major axis
7,023.242 km
Eccentricity
0.01059
Inclination
66.6694°
RAAN
263.316°
Arg. of periapsis
298.4879°
True anomaly
61.62437°
Mean anomaly
60.5602°
Eccentric anomaly
61.0916°
Mean motion
3.68754 °/min
Orbital period
97.63 mins
BSTAR
0.00099615

Documentation

Showing up to 5 results
|